Starlink 31242

operational
NORAD ID: 58864 Int'l Des: 2024-019 Owner: SPXS Country: US Constellation: starlink
LEOCIRCULAR

Über Starlink 31242

Beschreibung wird geladen...

Live-Position

3D-Globus wird geladen...

Nächste Überflüge

Höhenverlauf

Altitude vs Time

uPlot chart will show altitude changes over time

Zweizeiliger Elementsatz

1 58864U 24019M 25354.38405574 .00000201 00000-0 16845-4 0 9993
2 58864 43.0035 336.8032 0001428 288.3571 71.7125 15.27577779106953
Epoch: 20. Dez. 2025 • Age: 20 hours

Aktueller Status

Höhe 484.9 km
Geschwindigkeit 7.62 km/s
Subsatellitenpunkt -10.31°S, 0.15°W
Startdatum 29. Jan. 2024
Alter 1.8 years
Typ internet

Technische Details

Klassifizierung Payload
Masse 730.00 kg
Trockenmasse 700.00 kg
Gesamtmasse 730.00 kg
Länge 0.30 m
Durchmesser 4.10 m
Spannweite 29.00 m
Form Box + pan
Hersteller SPXS
Bus-Typ Starlink V2M
Phasenstatus In Orbit
Besitzer/Staat SPXS/US

Große Konstellationen

Loading constellations...